Regional Weather Roundup
Issued by NWS

Home | Current Version | Previous Version | Graphics & Text | Print | Product List | Glossary On
Versions: 1 2 3 4 5 6 7 8 9 10 11 12 13 14 15 16 17 18 19 20 21 22 23 24 25 26 27 28 29 30 31 32 33 34 35 36 37 38 39 40 41 42 43 44 45 46 47 48 49 50
000
ASUS43 KDTX 030901
RWRMI
MICHIGAN HOURLY REGIONAL WEATHER ROUNDUP
NATIONAL WEATHER SERVICE DETROIT/PONTIAC MI
400 AM EST TUE MAR 03 2015

NOTE: "FAIR" INDICATES FEW OR NO CLOUDS BELOW 12,000 FEET WITH NO
SIGNIFICANT WEATHER AND/OR OBSTRUCTION TO VISIBILITY.

MIZ047>049-052>055-059>063-066>070-074>076-081>083-031000-
SOUTHEAST LOWER MICHIGAN

CITY           SKY/WX    TMP DP  RH WIND       PRES   REMARKS
ADRIAN         CLOUDY    21  15  78 SE3       30.26F
ALMA           CLOUDY    23  17  78 CALM      30.22F
ANN ARBOR      CLOUDY    21  15  78 S5        30.26F WCI  15
BAD AXE        CLOUDY    19  13  74 S7        30.23F WCI  10
CARO           CLOUDY    22  12  64 S5        30.24F WCI  16
DETROIT CITY   CLOUDY    25  16  68 S5        30.28F WCI  19
DETROIT        CLOUDY    24  15  68 CALM      30.28F
FLINT          CLOUDY    25  14  63 S6        30.25F WCI  18
GROSSE ILE     CLOUDY    21  18  86 SE3       30.27S
HILLSDALE      CLOUDY    22  14  71 SE5       30.18F WCI  16
HOWELL         CLOUDY    24  15  68 SE5       30.22F WCI  18

CITY           SKY/WX    TMP DP  RH WIND       PRES   REMARKS
JACKSON        CLOUDY    23  14  68 S6        30.21F WCI  16
LAMBERTVILLE   CLOUDY    27  18  69 CALM      30.27F
LANSING        CLOUDY    25  14  63 S8        30.21F WCI  16
LAPEER         CLOUDY    22  13  69 S3        30.25S
MASON          CLOUDY    24  15  70 S7        30.21F WCI  16
MONROE         CLOUDY    23  18  80 CALM      30.27R
MT. CLEMENS    CLOUDY    19  16  86 S3        30.26F
PONTIAC        CLOUDY    23  14  68 S5        30.24F WCI  17
PORT HOPE        N/A     20  10  65 VRB5      30.23F WCI  13
PORT HURON     CLOUDY    18  14  86 CALM      30.28F
TRI CITIES     CLOUDY    23  13  65 S7        30.24F WCI  15
TROY           CLOUDY    26  15  63 SW6       30.29S WCI  19
SAGINAW HB     CLOUDY    25  16  68 S7        30.25S WCI  17
$$
MIZ043>046-050>051-056>058-064>065-071>073-077>080-031000-
SOUTHWEST LOWER MICHIGAN

CITY           SKY/WX    TMP DP  RH WIND       PRES   REMARKS
BATTLE CREEK   CLOUDY    25  14  63 SE6       30.18F WCI  18
BENTON HARBOR  CLOUDY    25  16  68 SE8       30.15F WCI  16
BIG RAPIDS     LGT SNOW  20  19  93 CALM      30.17F
COLDWATER      CLOUDY    23  15  70 SE6       30.18F WCI  16
FREMONT        CLOUDY    22  18  85 SE5       30.17F WCI  16
HOLLAND        CLOUDY    26  15  63 SE7       30.17F WCI  18
GRAND RAPIDS   CLOUDY    24  15  68 SE6       30.18F WCI  17
IONIA          CLOUDY    24  18  77 SE5       30.19F WCI  18
KALAMAZOO        N/A     25  15  66 SE7       30.17F WCI  17
LUDINGTON      CLOUDY    23  20  87 SE5       30.15F WCI  17
MARSHALL       CLOUDY    23  15  72 SE5       30.18F WCI  16
MOUNT PLEASANT CLOUDY    22  15  72 SE3       30.19F
MUSKEGON       CLOUDY    25  16  68 SE7       30.17F WCI  17
SOUTH HAVEN    CLOUDY    27  15  61 SE5       30.16F WCI  21
$$
MIZ016>042-031000-
NORTHERN LOWER MICHIGAN

CITY           SKY/WX    TMP DP  RH WIND       PRES   REMARKS
ALPENA         MOCLDY    -2  -8  76 CALM      30.20F
BEAVER ISLAND  MOCLDY    15   9  76 S7        30.13F WCI   6
BELLAIRE       CLOUDY     9   4  81 CALM      30.17F
CADILLAC       CLOUDY    19  11  73 S7        30.11F WCI   9
CHARLEVOIX     CLOUDY    12   5  73 CALM      30.18F
FRANKFORT      LGT SNOW  22  17  81 S7        30.13F WCI  13
GAYLORD        CLOUDY    10   2  69 S3        30.11F
GRAYLING       CLOUDY     6  -1  73 CALM      30.15F
HARBOR SPRINGS CLOUDY     6   2  80 NE3       30.15F
HOUGHTON LAKE  CLOUDY    18   9  68 S6        30.16F WCI  10
MANISTEE       CLOUDY    21  16  79 SE6       30.15F WCI  14
OSCODA         CLOUDY    15  10  80 SW3       30.22S
PELLSTON       MOCLDY    -6 -11  79 CALM      30.17F
ROGERS CITY    PTCLDY     8   2  75 SE3       30.19F
TRAVERSE CITY  CLOUDY    19  10  68 SE3       30.14F
$$
MIZ007>008-015-031000-
EASTERN UPPER MICHIGAN

CITY           SKY/WX    TMP DP  RH WIND       PRES   REMARKS
KINROSS        MOCLDY     9   7  92 S9        30.14F WCI  -5
MACKINAC ISLAN MOCLDY    13   4  65 S9        30.15F WCI   1
NEWBERRY       MOCLDY    12   7  79 S9        30.08F WCI   0
S. S. MARIE    MOCLDY    -2  -6  83 E5        30.16F WCI -12
MUNISING         N/A     19   9  65 S6        30.05F WCI  11
$$
MIZ004>006-011>014-085-031000-
CENTRAL UPPER MICHIGAN

CITY           SKY/WX    TMP DP  RH WIND       PRES   REMARKS
MANISTIQUE     CLOUDY    21  19  89 S9        30.08F WCI  11
ESCANABA       CLOUDY    21  16  79 S7        30.08F WCI  13
MENOMINEE      CLOUDY    23  16  74 SW14      30.07F WCI  11
SAWYER-GWINN   CLOUDY    15   8  73 S12       29.99F WCI   2
$$
MIZ001>003-009>011-084-031000-
WESTERN UPPER MICHIGAN

CITY           SKY/WX    TMP DP  RH WIND       PRES   REMARKS
IRON MOUNTAIN  CLOUDY    19  10  68 S6        30.00F WCI  11
HOUGHTON       CLOUDY    16   2  54 S9        29.91F WCI   4
COPPER HARBOR    N/A     21   3  45 W12G21    29.94F WCI   9
IRONWOOD       CLOUDY    21   7  53 SW12G21   29.88F WCI   9
$$

ABBREVIATIONS USED IN REMARKS
   TC - TEMPERATURE IN CELSIUS
  WCI - WIND CHILL INDEX
   HX - HEAT INDEX
  VSB - VISIBILITY



USA.gov is the U.S. government's official web portal to all federal, state and local government web resources and services.